Newberry, MI

9:00 AM EST on February 25, 2018 (GMT -0500)
Luce County

Weather History for KERY - October, 2013

Change the Weather History Date:

Thursday, October 24, 2013

  Actual Average Record
Temperature  
Mean Temperature 37 °F -  
Max Temperature 42 °F 52 °F 74 °F (1963)
Min Temperature 32 °F 34 °F 15 °F (1981)
Degree Days  
Heating Degree Days 28    
Moisture  
Dew Point 33 °F    
Average Humidity 95    
Maximum Humidity 100    
Minimum Humidity 77    
Precipitation  
Precipitation 0.01 in - - ()
Sea Level Pressure  
Sea Level Pressure 29.95 in    
Wind  
Wind Speed 8 mph (West)    
Max Wind Speed 12 mph    
Max Gust Speed 21 mph    
Visibility 8 miles    
Events Rain , Snow    
Averages and records for this station are not official NWS values.
T = Trace of Precipitation, MM = Missing Value Source: NWS Daily Summary

Daily Weather History Graph

Daily Weather History Graph

Search for Another Location

Airport or City:

Trip Planner

Search our weather history database for the weather conditions in past years. The results will help you decide how hot, cold, wet, or windy it might be!

Date:

Astronomy

Oct. 24, 2013 Rise Set
Actual Time 8:11 AM EDT 6:39 PM EDT
Civil Twilight 7:41 AM EDT 7:10 PM EDT
Nautical Twilight 7:05 AM EDT 7:45 PM EDT
Astronomical Twilight 6:31 AM EDT 8:19 PM EDT
Moon 10:56 PM EDT (10/24) 1:20 PM EDT (10/24)
Length of Visible Light 11h 28m
Length of Day
10h 27m
Waning Gibbous, 71% of the Moon is Illuminated
Oct 24
Waning Gibbous
Oct 26
Last Quarter
Nov 3
New
Nov 10
First Quarter
Nov 17
Full

Hourly Weather History & Observations

Time (EDT) Temp. Windchill Dew Point Humidity Pressure Visibility Wind Dir Wind Speed Gust Speed Precip Events Conditions
12:15 AM 32.0 °F 23.6 °F 31.6 °F 99% 29.82 in 10.0 mi West 10.4 mph - N/A   Mostly Cloudy
12:35 AM 32.0 °F 24.2 °F 31.8 °F 99% 29.82 in 10.0 mi West 9.2 mph - N/A   Overcast
12:54 AM 32.0 °F 23.6 °F 31.6 °F 99% 29.82 in 7.0 mi WSW 10.4 mph 16.1 mph N/A Snow Light Snow
1:15 AM 32.0 °F 23.6 °F 31.5 °F 98% 29.82 in 10.0 mi West 10.4 mph - N/A   Mostly Cloudy
1:35 AM 32.0 °F 23.6 °F 31.8 °F 99% 29.82 in 7.0 mi West 10.4 mph - N/A   Overcast
1:54 AM 32.0 °F 23.6 °F 31.6 °F 99% 29.82 in 10.0 mi West 10.4 mph - N/A   Scattered Clouds
2:15 AM 32.0 °F 24.8 °F 32.0 °F 100% 29.83 in 10.0 mi West 8.1 mph - N/A   Mostly Cloudy
2:35 AM 32.0 °F 24.8 °F 31.8 °F 99% 29.83 in 10.0 mi West 8.1 mph - N/A   Overcast
2:55 AM 32.2 °F 24.4 °F 32.0 °F 99% 29.83 in 4.0 mi West 9.2 mph - N/A Snow Light Snow
3:15 AM 32.0 °F 24.2 °F 31.6 °F 99% 29.83 in 7.0 mi West 9.2 mph - N/A Snow Light Snow
3:35 AM 32.0 °F 25.6 °F 31.6 °F 99% 29.83 in 10.0 mi West 6.9 mph - N/A   Overcast
3:55 AM 32.0 °F 24.8 °F 31.5 °F 98% 29.83 in 10.0 mi West 8.1 mph - N/A   Mostly Cloudy
4:15 AM 32.0 °F 24.2 °F 32.0 °F 100% 29.83 in 4.0 mi West 9.2 mph - N/A Snow Light Snow
4:35 AM 32.4 °F 26.0 °F 32.0 °F 99% 29.83 in 7.0 mi West 6.9 mph - N/A Snow Light Snow
4:55 AM 32.2 °F 25.0 °F 32.0 °F 99% 29.83 in 7.0 mi West 8.1 mph - N/A Snow Light Snow
5:15 AM 32.4 °F 25.3 °F 32.0 °F 99% 29.84 in 5.0 mi West 8.1 mph - N/A Snow Light Snow
5:34 AM 32.2 °F 25.0 °F 32.0 °F 99% 29.84 in 5.0 mi West 8.1 mph - N/A Snow Light Snow
5:55 AM 32.0 °F 25.6 °F 32.0 °F 100% 29.86 in 10.0 mi West 6.9 mph - N/A   Mostly Cloudy
6:15 AM 32.2 °F 26.7 °F 32.0 °F 99% 29.86 in 7.0 mi West 5.8 mph - N/A Snow Light Snow
6:34 AM 32.2 °F 25.0 °F 32.0 °F 99% 29.86 in 10.0 mi West 8.1 mph - N/A   Overcast
6:55 AM 32.4 °F 23.5 °F 32.0 °F 99% 29.87 in 10.0 mi West 11.5 mph - N/A   Overcast
7:15 AM 32.4 °F 24.6 °F 32.0 °F 99% 29.87 in 10.0 mi West 9.2 mph - N/A   Overcast
7:35 AM 32.5 °F 26.2 °F 32.0 °F 98% 29.88 in 7.0 mi West 6.9 mph - N/A Snow Light Snow
7:55 AM 32.5 °F 26.2 °F 32.0 °F 98% 29.89 in 5.0 mi West 6.9 mph - N/A Snow Light Snow
8:15 AM 32.5 °F 27.1 °F 32.0 °F 98% 29.89 in 4.0 mi WNW 5.8 mph - N/A Snow Light Snow
8:35 AM 32.2 °F 26.7 °F 32.0 °F 99% 29.90 in 1.2 mi WNW 5.8 mph - 0.01 in Snow Light Snow
8:55 AM 32.4 °F 25.3 °F 32.0 °F 99% 29.90 in 10.0 mi West 8.1 mph - 0.01 in   Overcast
9:15 AM 32.5 °F 25.5 °F 32.0 °F 98% 29.91 in 7.0 mi West 8.1 mph - N/A Snow Light Snow
9:35 AM 32.9 °F 25.9 °F 32.2 °F 97% 29.91 in 7.0 mi West 8.1 mph - N/A Snow Light Snow
9:55 AM 33.3 °F 26.4 °F 32.5 °F 97% 29.92 in 10.0 mi West 8.1 mph - N/A   Overcast
10:15 AM 33.8 °F 27.7 °F 32.9 °F 96% 29.93 in 7.0 mi West 6.9 mph - N/A Rain Light Rain
10:35 AM 33.8 °F 27.7 °F 32.9 °F 96% 29.93 in 4.0 mi West 6.9 mph - N/A Snow Light Snow
10:54 AM 34.5 °F 28.6 °F 33.8 °F 97% 29.94 in 2.0 mi West 6.9 mph - N/A Rain Rain
11:15 AM 35.6 °F 29.2 °F 34.7 °F 97% 29.94 in 4.0 mi West 8.1 mph - N/A   Overcast
11:35 AM 36.5 °F 30.3 °F 35.2 °F 95% 29.94 in 10.0 mi West 8.1 mph - N/A   Mostly Cloudy
11:54 AM 37.6 °F 32.3 °F 35.8 °F 93% 29.95 in 10.0 mi West 6.9 mph - N/A   Mostly Cloudy
12:15 PM 39.0 °F 33.4 °F 36.3 °F 90% 29.96 in 10.0 mi WNW 8.1 mph - N/A   Mostly Cloudy
12:35 PM 40.1 °F 33.6 °F 36.1 °F 86% 29.96 in 10.0 mi West 10.4 mph - N/A   Mostly Cloudy
12:55 PM 40.8 °F 35.6 °F 36.3 °F 84% 29.96 in 10.0 mi West 8.1 mph - N/A   Mostly Cloudy
1:15 PM 40.3 °F 36.3 °F 36.0 °F 85% 29.96 in 7.0 mi NW 5.8 mph - N/A Rain Light Rain
1:35 PM 40.1 °F - 36.7 °F 88% 29.96 in 7.0 mi Calm Calm - N/A Rain Light Rain
1:55 PM 40.8 °F 37.8 °F 36.7 °F 85% 29.96 in 10.0 mi NW 4.6 mph - N/A   Overcast
2:15 PM 41.9 °F 37.5 °F 36.7 °F 82% 29.97 in 10.0 mi West 6.9 mph - N/A   Overcast
2:34 PM 42.3 °F 40.5 °F 35.6 °F 77% 29.97 in 10.0 mi North 3.5 mph - N/A   Overcast
2:55 PM 38.7 °F 34.3 °F 35.4 °F 88% 29.97 in 5.0 mi NNW 5.8 mph - N/A Rain Light Rain
3:15 PM 39.7 °F - 36.3 °F 88% 29.98 in 10.0 mi Calm Calm - N/A   Overcast
3:34 PM 42.4 °F 37.0 °F 37.6 °F 83% 29.98 in 10.0 mi WSW 9.2 mph - N/A   Overcast
3:55 PM 39.2 °F 34.2 °F 36.3 °F 89% 29.99 in 7.0 mi WNW 6.9 mph - N/A Rain Light Rain
4:15 PM 38.7 °F 34.3 °F 36.1 °F 91% 30.00 in 10.0 mi WNW 5.8 mph - N/A   Light Drizzle
4:35 PM 39.2 °F 34.2 °F 36.5 °F 90% 30.00 in 10.0 mi WNW 6.9 mph - N/A   Mostly Cloudy
4:55 PM 39.0 °F 33.4 °F 35.8 °F 88% 30.01 in 5.0 mi NW 8.1 mph 20.7 mph N/A   Unknown
5:15 PM 38.3 °F 32.5 °F 35.4 °F 89% 30.02 in 10.0 mi NW 8.1 mph - N/A   Overcast
5:35 PM 37.9 °F 34.4 °F 35.6 °F 91% 30.03 in 7.0 mi NW 4.6 mph - N/A Rain Light Rain
5:55 PM 37.8 °F 30.7 °F 36.0 °F 93% 30.03 in 10.0 mi West 10.4 mph - N/A   Overcast
6:15 PM 36.5 °F 31.8 °F 35.1 °F 95% 30.04 in 10.0 mi West 5.8 mph - N/A   Overcast
6:35 PM 36.3 °F 33.7 °F 34.7 °F 94% 30.05 in 7.0 mi WNW 3.5 mph - N/A Rain Light Rain
6:54 PM 35.6 °F 28.0 °F 34.0 °F 94% 30.05 in 10.0 mi West 10.4 mph - N/A   Mostly Cloudy
7:15 PM 35.2 °F 27.1 °F 33.8 °F 94% 30.06 in 5.0 mi West 11.5 mph 17.3 mph N/A Snow Light Snow
7:35 PM 34.9 °F 28.3 °F 33.3 °F 94% 30.07 in 10.0 mi WNW 8.1 mph - N/A   Overcast
7:54 PM 34.9 °F 29.0 °F 33.6 °F 95% 30.08 in 10.0 mi West 6.9 mph - N/A Rain Light Rain
8:15 PM 34.7 °F 28.1 °F 33.3 °F 94% 30.08 in 10.0 mi WNW 8.1 mph - N/A   Overcast
8:35 PM 34.0 °F 29.8 °F 32.9 °F 96% 30.08 in 10.0 mi West 4.6 mph - N/A   Overcast
8:54 PM 32.7 °F 28.3 °F 32.2 °F 98% 30.08 in 10.0 mi West 4.6 mph - N/A   Mostly Cloudy
9:15 PM 32.9 °F 29.8 °F 32.2 °F 97% 30.08 in 10.0 mi WSW 3.5 mph - N/A   Mostly Cloudy
9:35 PM 32.4 °F 27.9 °F 32.0 °F 99% 30.08 in 10.0 mi WSW 4.6 mph - N/A   Scattered Clouds
9:55 PM 32.4 °F 25.3 °F 32.0 °F 99% 30.08 in 10.0 mi West 8.1 mph - N/A   Scattered Clouds
10:15 PM 33.3 °F 28.9 °F 32.0 °F 95% 30.09 in 5.0 mi West 4.6 mph - N/A Snow Light Snow
10:35 PM 32.9 °F 25.9 °F 32.0 °F 96% 30.09 in 10.0 mi West 8.1 mph - N/A   Mostly Cloudy
10:55 PM 32.0 °F 27.5 °F 32.0 °F 100% 30.09 in 10.0 mi West 4.6 mph - N/A   Scattered Clouds
11:15 PM 33.1 °F 26.1 °F 32.0 °F 96% 30.09 in 10.0 mi WNW 8.1 mph - N/A   Mostly Cloudy
11:34 PM 32.9 °F 25.3 °F 31.8 °F 96% 30.10 in 10.0 mi WNW 9.2 mph - N/A   Scattered Clouds
11:55 PM 33.8 °F 26.4 °F 31.1 °F 90% 30.10 in 10.0 mi NW 9.2 mph - N/A   Scattered Clouds